SCP
0 0 0 0 0 0 0 0 0 0 0 0 0 0 0 0 0 0 0 0 0 0 0 0 0 0 0 0 0 0 0 0 0 0 0 0 0 0 0 0 0 0 0 0 0 0 0 0 0 0 0 0 0 0
0 0 0 0 0 0 0 0 0 0 0 0 0 0 0 0 0 0 0 0 0 0 0 0 0 0 0 0 0 0 0 0 0 0 0 0 0 0 0 0 0 0 0 0 0 0 0 0 0 0 0 0 0 0
0 0 0 0 0 0 0 0 0 0 0 0 0 0 0 0 0 0 0 0 0 0 0 0 0 0 0 0 0 0 0 0 0 0 0 0 0 0 0 0 0 0 0 0 0 0 0 0 0 0 0 0 0 0
0 0 0 0 0 0 0 0 0 0 0 0 0 0 0 0 0 0 0 0 0 0 0 0 0 0 0 0 0 0 0 0 0 0 0 0 0 0 0 0 0 0 0 0 0 0 0 0 0 0 0 0 0 0
0 0 0 0 0 0 0 0 0 0 0 0 0 0 0 0 0 0 0 0 0 0 0 0 0 0 0 0 0 0 0 0 0 0 0 0 0 0 0 0 0 0 0 0 0 0 0 0 0 0 0 0 0 0
0 0 0 0 0 0 0 0 0 0 0 0 0 0 0 0 0 0 0 0 0 0 0 0 0 0 0 0 0 0 0 0 0 0 0 0 0 0 0 0 0 0 0 0 0 0 0 0 0 0 0 0 0 0
0 0 0 0 0 0 0 0 0 0 0 0 0 0 0 0 0 0 0 0 0 0 0 0 0 0 0 0 0 0 0 0 0 0 0 0 0 0 0 0 0 0 0 0 0 0 0 0 0 0 0 0 0 0
0 0 0 0 0 0 0 0 0 0 0 0 0 0 0 0 0 0 0 0 0 0 0 0 0 0 0 0 0 0 0 0 0 0 0 0 0 0 0 0 0 0 0 0 0 0 0 0 0 0 0 0 0 0
0 0 0 0 0 0 0 0 0 0 0 0 0 0 0 0 0 0 0 0 0 0 0 0 0 0 0 0 0 0 0 0 0 0 0 0 0 0 0 0 0 0 0 0 0 0 0 0 0 0 0 0 0 0
0 0 0 0 0 0 0 0 0 0 0 0 0 0 0 0 0 0 0 0 0 0 0 0 0 0 0 0 0 0 0 0 0 0 0 0 0 0 0 0 0 0 0 0 0 0 0 0 0 0 0 0 0 0
0 0 0 0 0 0 0 0 0 0 0 0 0 0 0 0 0 0 0 0 0 0 0 0 0 0 0 0 0 0 0 0 0 0 0 0 0 0 0 0 0 0 0 0 0 0 0 0 0 0 0 0 0 0
0 0 0 0 0 0 0 0 0 0 0 0 0 0 0 0 0 0 0 0 0 0 0 0 0 0 0 0 0 0 0 0 0 0 0 0 0 0 0 0 0 0 0 0 0 0 0 0 0 0 0 0 0 0
0 0 0 0 0 0 0 0 0 0 0 0 0 0 0 0 0 0 0 0 0 0 0 0 0 0 0 0 0 0 0 0 0 0 0 0 0 0 0 0 0 0 0 0 0 0 0 0 0 0 0 0 0 0
0 0 0 0 0 0 0 0 0 0 0 0 0 0 0 0 0 0 0 0 0 0 0 0 0 0 0 0 0 0 0 0 0 0 0 0 0 0 0 0 0 0 0 0 0 0 0 0 0 0 0 0 0 0
0 0 0 0 0 0 0 0 0 0 0 0 0 0 0 0 0 0 0 0 0 0 0 0 0 0 0 0 0 0 0 0 0 0 0 0 0 0 0 0 0 0 0 0 0 0 0 0 0 0 0 0 0 0
0 0 0 0 0 0 0 0 0 0 0 0 0 0 0 0 0 0 0 0 0 0 0 0 0 0 0 0 0 0 0 0 0 0 0 0 0 0 0 0 0 0 0 0 0 0 0 0 0 0 0 0 0 0
0 0 -0 0 0 0 0 0 0 0 0 0 0 0 0 0 0 0 0 0 0 0 0 0 0 0 0 0 0 0 0 0 0 -0 -0 0 0 0 0 0 0 0 0 0 0 0 0 0 0 0 0 0 0 0
0 0 0 0 0 0 0 0 0 0 0 0 0 0 0 0 0 0 0 0 0 0 0 0 0 0 0 0 0 0 0 0 0 0 0 0 0 0 0 0 0 0 0 0 0 0 0 0 0 0 0 0 0 0
0 0 0 0 0 0 0 0 0 0 0 0 0 0 0 0 0 0 0 0 0 0 0 0 0 0 0 0 0 0 0 0 0 0 0 0 0 0 0 0 0 0 0 0 0 0 0 0 0 0 0 0 0 0
0 0 0 0 0 0 0 0 0 0 0 0 0 0 0 0 0 0 0 0 0 0 0 0 0 0 0 0 0 0 0 0 0 0 0 0 0 0 0 0 0 0 0 0 0 0 0 0 0 0 0 0 0 0
0 0 0 0 0 0 0 0 0 0 0 0 0 0 0 0 0 0 0 0 0 0 0 0 0 0 0 0 0 0 0 0 0 0 0 0 0 0 0 0 0 0 0 0 0 0 0 0 0 0 0 0 0 0
0 0 0 0 0 0 0 0 0 0 0 0 0 0 0 0 0 0 0 0 0 0 0 0 0 0 0 0 0 0 0 0 0 0 0 0 0 0 0 0 0 0 0 0 0 0 0 0 0 0 0 0 0 0
0 0 0 0 0 0 0 0 0 0 0 0 0 0 0 0 0 0 0 0 0 0 0 0 0 0 0 0 0 0 0 0 0 0 0 0 0 0 0 0 0 0 0 0 0 0 0 0 0 0 0 0 0 0
0 0 0 0 0 0 0 0 0 0 0 0 0 0 0 0 0 0 0 0 0 0 0 0 0 0 0 0 0 0 0 0 0 0 0 0 0 0 0 0 0 0 0 0 0 0 0 0 0 0 0 0 0 0
0 0 0 0 0 0 0 0 0 0 0 0 0 0 0 0 0 0 0 0 0 0 0 0 0 0 0 0 0 0 0 0 0 0 0 0 0 0 0 0 0 0 0 0 0 0 0 0 0 0 0 0 0 0
0 0 0 0 0 0 0 0 0 0 0 0 0 0 0 0 0 0 0 0 0 0 0 0 0 0 0 0 0 0 0 0 0 0 0 0 0 0 0 0 0 0 0 0 0 0 0 0 0 0 0 0 0 0
0 0 0 0 0 0 0 0 0 0 0 0 0 0 0 0 0 0 0 0 0 0 0 0 0 0 0 0 0 0 0 0 0 0 0 0 0 0 0 0 0 0 0 0 0 0 0 0 0 0 0 0 0 0
0 0 0 0 0 0 0 0 0 0 0 0 0 0 0 0 0 0 0 0 0 0 0 0 0 0 0 0 0 0 0 0 0 0 0 0 0 0 0 0 0 0 0 0 0 0 0 0 0 0 0 0 0 0
0 0 0 0 0 0 0 0 0 0 0 0 0 0 0 0 0 0 0 0 0 0 0 0 0 0 0 0 0 0 0 0 0 0 0 0 0 0 0 0 0 0 0 0 0 0 0 0 0 0 0 0 0 0
0 0 0 0 0 0 0 0 0 0 0 0 0 0 0 0 0 0 0 0 0 0 0 0 0 0 0 0 0 0 0 0 0 0 0 0 0 0 0 0 0 0 0 0 0 0 0 0 0 0 0 0 0 0
0 0 0 0 0 0 0 0 0 0 0 0 0 0 0 0 0 0 0 0 0 0 0 0 0 0 0 0 0 0 0 0 0 0 0 0 0 0 0 0 0 0 0 0 0 0 0 0 0 0 0 0 0 0
0 0 0 0 0 0 0 0 0 0 0 0 0 0 0 0 0 0 0 0 0 0 0 0 0 0 0 0 0 0 0 0 0 0 0 0 0 0 0 0 0 0 0 0 0 0 0 0 0 0 0 0 0 0
0 0 0 0 0 0 0 0 0 0 0 0 0 0 0 0 0 0 0 0 0 0 0 0 0 0 0 0 0 0 0 0 0 0 0 0 0 0 0 0 0 0 0 0 0 0 0 0 0 0 0 0 0 0
Wind_Speed_500mb
72 62 60 62 59 55 50 45 39 34 28 24 20 18 18 18 17 16 20 17 14 10 13 11 14 17 20 32 9 21 9 2 7 7 7 7 6 8 3 14 13 14 13 7 5 3 14 20 10 13 10 21 19 6
72 63 60 60 57 54 50 45 40 35 31 26 21 19 18 18 18 18 21 16 14 8 10 13 19 19 25 21 22 37 7 11 13 8 3 4 3 3 2 5 7 3 14 12 16 13 17 17 14 20 20 26 6 3
72 62 59 58 54 51 47 44 40 36 32 27 23 19 18 18 19 16 20 18 16 13 15 10 9 10 13 18 30 16 11 14 17 12 14 6 6 6 7 9 2 6 22 6 8 13 16 34 31 25 17 9 7 9
64 62 53 50 49 45 45 43 41 37 33 28 25 21 18 17 17 15 18 16 14 13 10 4 8 10 10 17 21 20 24 18 29 17 10 6 5 22 8 9 8 12 7 1 4 14 29 22 24 17 2 1 12 15
66 58 50 43 43 40 39 41 40 37 33 29 25 22 20 19 16 13 13 15 15 7 9 8 8 6 10 14 11 12 14 21 14 9 7 6 9 2 2 5 5 10 10 7 11 13 10 17 24 7 3 17 17 8
42 64 55 50 47 42 38 38 38 36 34 31 27 23 21 20 18 17 7 12 16 15 8 4 4 2 5 14 14 16 16 11 9 10 6 7 7 13 6 6 15 24 27 28 17 16 12 17 15 9 21 17 11 7
42 39 52 59 52 45 36 37 38 36 34 31 28 25 23 23 24 13 9 9 20 16 8 7 0 2 14 19 14 12 14 8 8 9 13 7 5 8 5 8 14 20 10 14 15 17 16 16 9 20 23 14 10 3
44 42 35 38 52 46 39 38 39 38 34 31 29 26 24 23 22 14 11 11 20 14 8 7 4 2 16 6 6 5 6 8 3 4 8 6 8 1 7 22 34 37 22 23 15 5 10 15 16 17 11 9 0 8
36 32 34 28 27 33 43 40 39 36 35 31 25 24 22 17 13 14 11 9 16 8 11 8 10 7 13 6 7 6 6 2 4 4 7 9 3 11 12 12 13 31 32 25 17 23 20 20 18 13 4 5 11 18
30 32 27 23 20 19 19 47 36 37 34 31 27 12 9 19 15 18 4 5 9 12 9 9 14 4 14 11 5 8 4 3 2 6 8 3 6 28 22 4 23 32 21 29 34 24 24 16 8 2 5 13 22 29
29 28 26 22 17 13 18 21 40 47 43 34 17 7 19 33 17 12 8 3 4 2 12 12 20 12 13 7 6 11 5 4 5 6 6 5 5 9 8 21 27 20 27 27 23 26 21 13 4 7 15 24 33 37
28 30 30 27 20 18 24 28 26 38 31 34 24 28 24 11 6 6 6 3 4 6 5 9 7 12 12 11 9 11 6 5 9 20 4 6 1 31 23 21 24 32 32 28 23 17 10 4 9 20 26 32 29 29
26 30 33 36 37 34 28 21 24 29 27 28 9 8 7 4 6 10 14 3 3 9 11 9 5 8 10 9 9 5 9 9 9 6 6 3 18 26 32 33 28 26 27 25 15 6 6 19 23 26 28 27 30 36
23 25 28 26 33 37 32 33 39 31 12 8 7 7 2 4 3 4 3 3 6 3 18 21 12 5 4 4 6 8 3 5 5 4 7 2 22 24 30 28 24 22 16 11 7 16 24 30 33 31 31 31 34 37
20 20 21 22 20 20 22 19 12 12 8 8 7 5 4 6 7 3 6 8 9 14 20 12 9 6 3 4 0 6 3 3 1 2 4 10 25 33 27 20 19 16 6 8 18 27 32 31 31 33 33 38 39 38
16 18 18 19 16 11 12 12 10 11 9 7 7 6 11 10 9 18 21 16 16 20 14 9 4 3 4 2 3 2 6 3 5 2 19 22 18 20 22 14 7 2 16 27 29 28 30 32 34 39 42 36 31 31
15 10 15 15 10 8 5 10 8 9 9 6 6 16 19 22 15 13 17 16 15 9 4 4 5 3 2 2 3 5 6 3 13 15 25 22 21 15 10 7 9 24 35 35 35 36 38 39 40 41 34 31 35 38
11 9 11 13 10 13 14 10 8 7 8 7 6 10 16 14 16 14 15 17 10 8 5 4 8 4 3 2 2 4 11 12 9 12 10 9 9 9 11 16 32 31 30 33 37 39 38 37 38 37 38 42 46 49
7 10 12 12 7 8 6 7 8 8 9 9 17 13 14 15 13 9 11 10 11 14 17 7 5 3 3 6 11 13 13 10 6 9 7 3 6 12 21 25 31 36 39 40 41 41 42 40 41 40 38 41 45 46
4 9 14 15 8 2 5 7 7 6 6 9 13 13 10 5 9 14 11 11 12 7 4 3 2 4 10 16 14 10 4 4 9 8 9 13 14 19 24 29 35 41 45 47 49 49 46 44 39 43 45 47 46 53
4 4 6 17 13 0 6 5 5 6 10 7 15 12 10 13 9 7 9 8 2 1 1 3 3 1 4 5 7 8 8 9 10 13 15 19 16 18 25 31 38 43 44 47 49 52 48 49 50 47 50 53 58 55
5 10 4 17 6 8 5 9 8 9 6 7 13 9 8 7 8 6 3 4 3 2 2 3 4 4 5 3 2 5 6 8 8 8 9 15 21 27 32 39 44 48 51 52 51 57 59 57 53 50 53 60 49 47
11 8 4 5 6 5 7 18 7 10 7 12 10 7 4 5 6 9 4 6 3 2 3 2 1 5 2 5 3 5 7 8 11 5 6 15 21 29 47 44 38 41 49 56 56 56 60 59 64 61 55 59 49 46
6 7 6 4 5 7 10 5 8 8 11 9 7 4 5 6 8 4 4 7 13 14 13 14 10 6 8 11 12 10 7 5 6 13 24 36 48 56 55 53 52 49 50 57 58 56 53 57 61 57 61 38 37 36
4 4 6 3 5 9 8 6 6 6 5 5 5 3 6 10 4 4 5 9 8 8 10 14 23 22 18 12 6 13 19 28 37 42 40 40 42 46 48 46 37 30 41 53 57 54 51 43 42 26 29 29 30 31
5 4 3 9 8 5 9 7 8 7 6 5 5 10 10 5 3 7 5 12 14 7 5 5 3 4 4 9 18 28 35 37 35 34 31 31 36 35 37 39 43 44 44 44 46 46 43 34 32 30 31 33 33 29
8 6 4 5 3 8 6 7 12 9 5 8 8 9 6 5 8 6 15 15 12 9 4 2 2 9 14 20 22 20 25 26 28 28 23 11 17 26 37 44 45 47 46 45 44 43 43 41 39 40 39 35 32 25
3 7 8 9 4 3 6 6 4 6 5 10 22 5 12 7 4 7 10 12 13 10 6 11 12 11 11 11 13 18 21 22 24 24 14 18 28 38 36 41 44 46 48 44 42 41 40 38 38 39 37 32 31 30
5 8 7 6 3 2 2 2 4 5 4 15 8 3 8 9 12 11 13 10 9 10 8 5 7 5 5 6 10 17 26 31 38 39 39 40 45 49 53 57 58 55 53 52 46 41 38 33 38 40 33 27 21 20
4 5 4 4 3 2 4 6 6 7 10 10 9 12 11 12 16 14 9 7 6 3 2 3 5 7 9 13 16 16 22 29 33 38 38 43 52 54 54 58 59 59 58 54 51 46 36 33 30 21 18 21 24 27
9 4 3 5 7 5 1 2 5 7 9 6 4 6 11 12 11 7 10 5 4 3 6 3 3 10 16 18 20 23 24 29 36 40 44 46 45 52 58 58 55 54 52 49 46 38 30 31 29 24 24 25 25 25
4 4 1 4 7 5 5 3 2 1 3 3 4 7 8 8 7 2 10 12 8 2 2 9 14 16 18 18 16 21 25 32 37 42 40 44 50 53 56 55 53 49 44 42 35 25 26 32 29 28 28 27 25 21
5 6 7 5 4 4 5 4 3 5 6 5 6 8 7 5 7 5 8 8 2 4 10 13 17 20 21 20 25 28 27 32 34 34 37 40 45 49 48 45 43 40 38 36 28 27 30 31 27 24 22 19 17 16
Wind_Direction_500mb
178 177 178 180 179 179 180 181 181 179 177 173 167 162 157 154 150 149 138 147 163 110 79 85 114 113 145 139 133 155 88 343 65 82 131 210 184 247 125 161 174 162 154 188 192 232 277 204 85 150 158 133 130 85
170 174 177 178 179 178 180 183 182 181 179 176 173 168 164 157 149 151 139 144 142 119 133 109 96 106 130 140 155 165 163 152 150 94 169 148 196 351 124 235 180 140 184 178 180 213 225 180 160 172 199 158 151 81
165 170 172 174 177 178 180 183 184 184 183 180 177 173 170 164 167 167 146 149 147 108 110 142 137 150 135 151 171 158 175 154 166 141 138 153 200 139 168 240 325 309 192 194 110 253 152 145 156 165 157 155 309 290
157 163 169 172 172 176 180 183 185 186 186 184 180 177 173 168 180 176 159 152 147 119 112 133 162 201 179 171 175 188 182 168 158 161 114 145 176 192 208 222 163 220 329 222 278 110 108 151 170 155 87 277 153 127
161 168 168 168 175 180 181 182 183 185 186 186 185 179 173 172 174 163 157 157 154 151 139 118 174 233 206 178 181 193 182 186 165 113 99 209 225 140 9 80 251 205 201 160 231 210 182 179 179 168 106 139 128 151
148 173 176 177 180 179 185 181 181 183 184 185 186 182 176 171 160 153 132 166 177 163 134 88 159 158 166 164 142 151 165 153 158 149 187 226 241 201 146 211 255 249 260 243 173 164 140 138 163 172 148 143 172 181
85 100 166 173 177 177 177 183 180 180 179 182 184 179 176 173 167 150 148 151 180 178 149 80 340 232 157 144 146 159 183 174 154 170 194 210 270 202 134 212 236 227 217 187 166 147 123 158 191 171 157 166 167 146
78 86 84 135 169 173 180 185 182 178 177 176 176 176 173 171 164 137 130 143 172 168 156 112 236 276 164 135 130 147 164 211 218 206 166 184 277 60 247 242 242 245 201 158 163 139 125 136 131 139 166 169 308 315
84 83 76 79 107 156 179 180 176 176 178 172 166 158 155 160 158 173 176 163 193 187 149 137 153 208 161 116 113 125 179 90 258 216 195 166 216 226 246 252 254 181 173 174 147 133 131 127 138 132 108 357 314 294
81 87 93 96 85 100 149 188 175 176 167 162 158 150 168 166 151 162 171 211 207 198 170 165 159 151 156 161 109 137 174 191 199 240 171 189 250 255 236 268 168 168 159 149 142 146 142 129 115 103 314 294 291 297
75 76 84 91 99 125 154 159 179 177 174 172 168 168 160 151 143 172 189 156 185 259 200 185 186 147 157 127 166 198 174 169 230 211 195 232 253 244 189 166 161 159 138 129 138 137 122 124 121 275 282 291 298 300
70 67 72 68 69 87 146 164 171 183 170 173 163 148 146 158 171 130 187 132 171 215 148 159 108 135 137 154 127 173 163 163 240 149 188 249 239 125 131 133 133 129 132 126 125 124 132 189 282 295 297 299 301 305
75 72 70 65 73 88 103 130 163 188 175 137 99 107 112 121 191 198 193 220 163 155 159 154 92 134 139 165 109 138 184 212 146 175 227 249 138 136 128 126 134 142 146 147 148 176 294 316 317 316 315 314 312 313
75 79 77 79 73 79 95 115 135 136 104 91 112 97 35 136 52 49 16 53 79 216 164 151 113 135 126 119 132 171 178 113 213 210 231 113 129 141 147 144 157 165 182 207 273 304 310 315 313 314 318 320 318 318
81 81 86 91 90 86 90 93 113 170 84 86 76 87 89 118 85 131 126 112 105 155 150 103 87 110 82 109 165 104 144 208 240 96 30 101 145 140 143 154 148 146 180 278 302 305 305 306 310 313 318 319 321 320
98 88 90 83 93 87 66 57 86 92 71 76 79 105 136 111 84 94 103 93 123 132 105 82 98 98 54 50 193 213 172 80 63 274 158 144 152 160 163 163 173 232 314 312 312 311 312 316 314 313 313 316 318 312
89 74 92 94 80 44 41 102 68 65 76 70 75 104 106 101 106 96 94 91 95 92 64 52 62 70 269 39 43 13 45 165 186 165 169 163 156 152 174 199 282 319 316 311 311 312 311 310 308 307 307 318 321 315
88 105 113 121 104 80 62 56 76 76 80 102 115 87 86 111 115 99 111 102 83 94 106 136 138 105 116 143 185 211 148 147 138 144 153 166 181 211 250 292 309 315 317 311 307 308 310 313 313 311 308 312 315 311
109 148 164 159 130 37 44 55 58 86 75 107 124 119 100 109 104 105 105 104 109 116 122 116 91 175 195 138 139 122 140 148 149 182 187 238 292 299 308 310 314 317 319 319 318 315 312 308 304 302 305 309 308 309
32 171 183 188 162 0 65 61 69 82 110 131 129 123 119 129 141 129 135 143 139 124 98 112 211 59 93 113 128 126 126 204 211 211 244 297 302 301 307 316 320 319 316 313 312 309 307 302 298 299 300 300 299 303
356 192 204 195 190 352 86 100 96 89 121 113 141 117 100 107 114 139 162 173 261 139 217 172 92 16 305 303 287 271 235 242 258 277 288 297 311 323 327 330 327 322 317 312 308 306 303 301 305 302 304 304 305 304
253 336 189 197 133 144 138 133 109 121 102 141 152 101 131 147 150 164 178 232 259 276 185 45 80 99 100 84 21 345 338 327 324 332 2 347 334 329 326 326 326 322 318 313 312 310 306 302 298 298 304 307 305 303
240 267 221 209 124 125 131 136 133 151 137 169 146 117 157 155 164 187 216 225 224 34 273 83 19 314 358 247 332 76 96 83 65 60 305 301 301 304 314 314 316 316 308 308 310 308 306 302 300 300 297 298 301 302
204 196 194 195 139 113 139 160 150 127 127 174 165 156 115 145 159 216 240 135 103 132 116 91 98 91 131 103 113 102 66 28 308 306 311 311 308 310 315 314 311 313 308 306 311 315 316 313 306 297 285 284 303 303
225 206 168 133 152 151 153 156 183 156 138 185 103 111 151 151 162 196 216 113 133 131 128 101 91 88 108 103 37 341 328 325 324 323 325 323 318 316 321 326 328 315 310 314 320 324 326 330 337 302 313 310 308 305
227 195 236 154 188 198 164 138 188 163 124 154 137 133 152 168 137 230 86 137 124 118 86 110 133 113 23 329 318 316 318 319 324 331 341 342 330 325 324 332 331 323 324 327 328 327 325 326 325 319 310 310 306 299
181 185 233 204 171 135 94 84 106 111 148 175 157 167 122 161 217 102 136 139 151 137 112 209 308 333 322 316 319 326 322 340 345 349 357 355 291 318 328 331 329 325 329 326 323 322 320 320 321 312 309 308 305 284
95 165 158 172 174 142 138 121 149 174 206 160 146 170 168 179 111 139 164 197 180 150 235 278 308 321 328 343 330 325 323 330 333 340 342 218 306 318 318 320 320 324 324 325 324 319 315 312 315 313 314 307 294 290
145 112 115 64 116 152 118 144 155 91 75 165 165 104 107 115 140 163 188 191 176 190 230 276 330 323 318 305 320 321 324 327 333 339 337 332 329 329 331 330 330 329 326 323 320 320 320 315 311 304 299 286 282 289
95 119 124 149 162 122 67 49 105 129 87 106 109 114 108 127 165 185 202 222 230 231 237 244 274 316 347 340 334 338 328 327 331 333 332 328 325 325 328 328 327 326 327 328 325 324 321 318 329 342 291 285 297 292
128 117 104 62 82 75 339 120 108 104 106 92 86 136 146 159 170 199 217 210 250 219 212 205 315 338 337 334 333 333 332 325 323 330 323 318 321 322 328 331 330 328 328 328 329 330 329 332 330 315 306 308 310 311
72 66 61 104 107 64 68 83 101 147 178 191 189 148 137 128 117 167 171 175 217 216 27 352 344 340 332 327 332 315 309 317 321 320 321 322 324 330 333 333 333 333 335 336 337 331 330 327 321 311 311 312 313 317
92 77 78 78 136 136 14 38 221 179 192 153 101 116 132 132 119 199 180 198 209 8 356 349 344 334 326 328 319 327 325 323 323 325 324 328 330 332 333 334 338 339 342 342 335 331 327 324 329 329 323 323 327 333
Wind_Speed_850mb
72 62 60 62 59 55 50 45 39 34 28 24 20 18 18 18 17 16 20 17 14 10 13 11 14 17 20 32 9 21 9 2 7 7 7 7 6 8 3 14 13 14 13 7 5 3 14 20 10 13 10 21 19 6
72 63 60 60 57 54 50 45 40 35 31 26 21 19 18 18 18 18 21 16 14 8 10 13 19 19 25 21 22 37 7 11 13 8 3 4 3 3 2 5 7 3 14 12 16 13 17 17 14 20 20 26 6 3
72 62 59 58 54 51 47 44 40 36 32 27 23 19 18 18 19 16 20 18 16 13 15 10 9 10 13 18 30 16 11 14 17 12 14 6 6 6 7 9 2 6 22 6 8 13 16 34 31 25 17 9 7 9
64 62 53 50 49 45 45 43 41 37 33 28 25 21 18 17 17 15 18 16 14 13 10 4 8 10 10 17 21 20 24 18 29 17 10 6 5 22 8 9 8 12 7 1 4 14 29 22 24 17 2 1 12 15
66 58 50 43 43 40 39 41 40 37 33 29 25 22 20 19 16 13 13 15 15 7 9 8 8 6 10 14 11 12 14 21 14 9 7 6 9 2 2 5 5 10 10 7 11 13 10 17 24 7 3 17 17 8
42 64 55 50 47 42 38 38 38 36 34 31 27 23 21 20 18 17 7 12 16 15 8 4 4 2 5 14 14 16 16 11 9 10 6 7 7 13 6 6 15 24 27 28 17 16 12 17 15 9 21 17 11 7
42 39 52 59 52 45 36 37 38 36 34 31 28 25 23 23 24 13 9 9 20 16 8 7 0 2 14 19 14 12 14 8 8 9 13 7 5 8 5 8 14 20 10 14 15 17 16 16 9 20 23 14 10 3
44 42 35 38 52 46 39 38 39 38 34 31 29 26 24 23 22 14 11 11 20 14 8 7 4 2 16 6 6 5 6 8 3 4 8 6 8 1 7 22 34 37 22 23 15 5 10 15 16 17 11 9 0 8
36 32 34 28 27 33 43 40 39 36 35 31 25 24 22 17 13 14 11 9 16 8 11 8 10 7 13 6 7 6 6 2 4 4 7 9 3 11 12 12 13 31 32 25 17 23 20 20 18 13 4 5 11 18
30 32 27 23 20 19 19 47 36 37 34 31 27 12 9 19 15 18 4 5 9 12 9 9 14 4 14 11 5 8 4 3 2 6 8 3 6 28 22 4 23 32 21 29 34 24 24 16 8 2 5 13 22 29
29 28 26 22 17 13 18 21 40 47 43 34 17 7 19 33 17 12 8 3 4 2 12 12 20 12 13 7 6 11 5 4 5 6 6 5 5 9 8 21 27 20 27 27 23 26 21 13 4 7 15 24 33 37
28 30 30 27 20 18 24 28 26 38 31 34 24 28 24 11 6 6 6 3 4 6 5 9 7 12 12 11 9 11 6 5 9 20 4 6 1 31 23 21 24 32 32 28 23 17 10 4 9 20 26 32 29 29
26 30 33 36 37 34 28 21 24 29 27 28 9 8 7 4 6 10 14 3 3 9 11 9 5 8 10 9 9 5 9 9 9 6 6 3 18 26 32 33 28 26 27 25 15 6 6 19 23 26 28 27 30 36
23 25 28 26 33 37 32 33 39 31 12 8 7 7 2 4 3 4 3 3 6 3 18 21 12 5 4 4 6 8 3 5 5 4 7 2 22 24 30 28 24 22 16 11 7 16 24 30 33 31 31 31 34 37
20 20 21 22 20 20 22 19 12 12 8 8 7 5 4 6 7 3 6 8 9 14 20 12 9 6 3 4 0 6 3 3 1 2 4 10 25 33 27 20 19 16 6 8 18 27 32 31 31 33 33 38 39 38
16 18 18 19 16 11 12 12 10 11 9 7 7 6 11 10 9 18 21 16 16 20 14 9 4 3 4 2 3 2 6 3 5 2 19 22 18 20 22 14 7 2 16 27 29 28 30 32 34 39 42 36 31 31
15 10 15 15 10 8 5 10 8 9 9 6 6 16 19 22 15 13 17 16 15 9 4 4 5 3 2 2 3 5 6 3 13 15 25 22 21 15 10 7 9 24 35 35 35 36 38 39 40 41 34 31 35 38
11 9 11 13 10 13 14 10 8 7 8 7 6 10 16 14 16 14 15 17 10 8 5 4 8 4 3 2 2 4 11 12 9 12 10 9 9 9 11 16 32 31 30 33 37 39 38 37 38 37 38 42 46 49
7 10 12 12 7 8 6 7 8 8 9 9 17 13 14 15 13 9 11 10 11 14 17 7 5 3 3 6 11 13 13 10 6 9 7 3 6 12 21 25 31 36 39 40 41 41 42 40 41 40 38 41 45 46
4 9 14 15 8 2 5 7 7 6 6 9 13 13 10 5 9 14 11 11 12 7 4 3 2 4 10 16 14 10 4 4 9 8 9 13 14 19 24 29 35 41 45 47 49 49 46 44 39 43 45 47 46 53
4 4 6 17 13 0 6 5 5 6 10 7 15 12 10 13 9 7 9 8 2 1 1 3 3 1 4 5 7 8 8 9 10 13 15 19 16 18 25 31 38 43 44 47 49 52 48 49 50 47 50 53 58 55
5 10 4 17 6 8 5 9 8 9 6 7 13 9 8 7 8 6 3 4 3 2 2 3 4 4 5 3 2 5 6 8 8 8 9 15 21 27 32 39 44 48 51 52 51 57 59 57 53 50 53 60 49 47
11 8 4 5 6 5 7 18 7 10 7 12 10 7 4 5 6 9 4 6 3 2 3 2 1 5 2 5 3 5 7 8 11 5 6 15 21 29 47 44 38 41 49 56 56 56 60 59 64 61 55 59 49 46
6 7 6 4 5 7 10 5 8 8 11 9 7 4 5 6 8 4 4 7 13 14 13 14 10 6 8 11 12 10 7 5 6 13 24 36 48 56 55 53 52 49 50 57 58 56 53 57 61 57 61 38 37 36
4 4 6 3 5 9 8 6 6 6 5 5 5 3 6 10 4 4 5 9 8 8 10 14 23 22 18 12 6 13 19 28 37 42 40 40 42 46 48 46 37 30 41 53 57 54 51 43 42 26 29 29 30 31
5 4 3 9 8 5 9 7 8 7 6 5 5 10 10 5 3 7 5 12 14 7 5 5 3 4 4 9 18 28 35 37 35 34 31 31 36 35 37 39 43 44 44 44 46 46 43 34 32 30 31 33 33 29
8 6 4 5 3 8 6 7 12 9 5 8 8 9 6 5 8 6 15 15 12 9 4 2 2 9 14 20 22 20 25 26 28 28 23 11 17 26 37 44 45 47 46 45 44 43 43 41 39 40 39 35 32 25
3 7 8 9 4 3 6 6 4 6 5 10 22 5 12 7 4 7 10 12 13 10 6 11 12 11 11 11 13 18 21 22 24 24 14 18 28 38 36 41 44 46 48 44 42 41 40 38 38 39 37 32 31 30
5 8 7 6 3 2 2 2 4 5 4 15 8 3 8 9 12 11 13 10 9 10 8 5 7 5 5 6 10 17 26 31 38 39 39 40 45 49 53 57 58 55 53 52 46 41 38 33 38 40 33 27 21 20
4 5 4 4 3 2 4 6 6 7 10 10 9 12 11 12 16 14 9 7 6 3 2 3 5 7 9 13 16 16 22 29 33 38 38 43 52 54 54 58 59 59 58 54 51 46 36 33 30 21 18 21 24 27
9 4 3 5 7 5 1 2 5 7 9 6 4 6 11 12 11 7 10 5 4 3 6 3 3 10 16 18 20 23 24 29 36 40 44 46 45 52 58 58 55 54 52 49 46 38 30 31 29 24 24 25 25 25
4 4 1 4 7 5 5 3 2 1 3 3 4 7 8 8 7 2 10 12 8 2 2 9 14 16 18 18 16 21 25 32 37 42 40 44 50 53 56 55 53 49 44 42 35 25 26 32 29 28 28 27 25 21
5 6 7 5 4 4 5 4 3 5 6 5 6 8 7 5 7 5 8 8 2 4 10 13 17 20 21 20 25 28 27 32 34 34 37 40 45 49 48 45 43 40 38 36 28 27 30 31 27 24 22 19 17 16
Wind_Direction_850mb
178 177 178 180 179 179 180 181 181 179 177 173 167 162 157 154 150 149 138 147 163 110 79 85 114 113 145 139 133 155 88 343 65 82 131 210 184 247 125 161 174 162 154 188 192 232 277 204 85 150 158 133 130 85
170 174 177 178 179 178 180 183 182 181 179 176 173 168 164 157 149 151 139 144 142 119 133 109 96 106 130 140 155 165 163 152 150 94 169 148 196 351 124 235 180 140 184 178 180 213 225 180 160 172 199 158 151 81
165 170 172 174 177 178 180 183 184 184 183 180 177 173 170 164 167 167 146 149 147 108 110 142 137 150 135 151 171 158 175 154 166 141 138 153 200 139 168 240 325 309 192 194 110 253 152 145 156 165 157 155 309 290
157 163 169 172 172 176 180 183 185 186 186 184 180 177 173 168 180 176 159 152 147 119 112 133 162 201 179 171 175 188 182 168 158 161 114 145 176 192 208 222 163 220 329 222 278 110 108 151 170 155 87 277 153 127
161 168 168 168 175 180 181 182 183 185 186 186 185 179 173 172 174 163 157 157 154 151 139 118 174 233 206 178 181 193 182 186 165 113 99 209 225 140 9 80 251 205 201 160 231 210 182 179 179 168 106 139 128 151
148 173 176 177 180 179 185 181 181 183 184 185 186 182 176 171 160 153 132 166 177 163 134 88 159 158 166 164 142 151 165 153 158 149 187 226 241 201 146 211 255 249 260 243 173 164 140 138 163 172 148 143 172 181
85 100 166 173 177 177 177 183 180 180 179 182 184 179 176 173 167 150 148 151 180 178 149 80 340 232 157 144 146 159 183 174 154 170 194 210 270 202 134 212 236 227 217 187 166 147 123 158 191 171 157 166 167 146
78 86 84 135 169 173 180 185 182 178 177 176 176 176 173 171 164 137 130 143 172 168 156 112 236 276 164 135 130 147 164 211 218 206 166 184 277 60 247 242 242 245 201 158 163 139 125 136 131 139 166 169 308 315
84 83 76 79 107 156 179 180 176 176 178 172 166 158 155 160 158 173 176 163 193 187 149 137 153 208 161 116 113 125 179 90 258 216 195 166 216 226 246 252 254 181 173 174 147 133 131 127 138 132 108 357 314 294
81 87 93 96 85 100 149 188 175 176 167 162 158 150 168 166 151 162 171 211 207 198 170 165 159 151 156 161 109 137 174 191 199 240 171 189 250 255 236 268 168 168 159 149 142 146 142 129 115 103 314 294 291 297
75 76 84 91 99 125 154 159 179 177 174 172 168 168 160 151 143 172 189 156 185 259 200 185 186 147 157 127 166 198 174 169 230 211 195 232 253 244 189 166 161 159 138 129 138 137 122 124 121 275 282 291 298 300
70 67 72 68 69 87 146 164 171 183 170 173 163 148 146 158 171 130 187 132 171 215 148 159 108 135 137 154 127 173 163 163 240 149 188 249 239 125 131 133 133 129 132 126 125 124 132 189 282 295 297 299 301 305
75 72 70 65 73 88 103 130 163 188 175 137 99 107 112 121 191 198 193 220 163 155 159 154 92 134 139 165 109 138 184 212 146 175 227 249 138 136 128 126 134 142 146 147 148 176 294 316 317 316 315 314 312 313
75 79 77 79 73 79 95 115 135 136 104 91 112 97 35 136 52 49 16 53 79 216 164 151 113 135 126 119 132 171 178 113 213 210 231 113 129 141 147 144 157 165 182 207 273 304 310 315 313 314 318 320 318 318
81 81 86 91 90 86 90 93 113 170 84 86 76 87 89 118 85 131 126 112 105 155 150 103 87 110 82 109 165 104 144 208 240 96 30 101 145 140 143 154 148 146 180 278 302 305 305 306 310 313 318 319 321 320
98 88 90 83 93 87 66 57 86 92 71 76 79 105 136 111 84 94 103 93 123 132 105 82 98 98 54 50 193 213 172 80 63 274 158 144 152 160 163 163 173 232 314 312 312 311 312 316 314 313 313 316 318 312
89 74 92 94 80 44 41 102 68 65 76 70 75 104 106 101 106 96 94 91 95 92 64 52 62 70 269 39 43 13 45 165 186 165 169 163 156 152 174 199 282 319 316 311 311 312 311 310 308 307 307 318 321 315
88 105 113 121 104 80 62 56 76 76 80 102 115 87 86 111 115 99 111 102 83 94 106 136 138 105 116 143 185 211 148 147 138 144 153 166 181 211 250 292 309 315 317 311 307 308 310 313 313 311 308 312 315 311
109 148 164 159 130 37 44 55 58 86 75 107 124 119 100 109 104 105 105 104 109 116 122 116 91 175 195 138 139 122 140 148 149 182 187 238 292 299 308 310 314 317 319 319 318 315 312 308 304 302 305 309 308 309
32 171 183 188 162 0 65 61 69 82 110 131 129 123 119 129 141 129 135 143 139 124 98 112 211 59 93 113 128 126 126 204 211 211 244 297 302 301 307 316 320 319 316 313 312 309 307 302 298 299 300 300 299 303
356 192 204 195 190 352 86 100 96 89 121 113 141 117 100 107 114 139 162 173 261 139 217 172 92 16 305 303 287 271 235 242 258 277 288 297 311 323 327 330 327 322 317 312 308 306 303 301 305 302 304 304 305 304
253 336 189 197 133 144 138 133 109 121 102 141 152 101 131 147 150 164 178 232 259 276 185 45 80 99 100 84 21 345 338 327 324 332 2 347 334 329 326 326 326 322 318 313 312 310 306 302 298 298 304 307 305 303
240 267 221 209 124 125 131 136 133 151 137 169 146 117 157 155 164 187 216 225 224 34 273 83 19 314 358 247 332 76 96 83 65 60 305 301 301 304 314 314 316 316 308 308 310 308 306 302 300 300 297 298 301 302
204 196 194 195 139 113 139 160 150 127 127 174 165 156 115 145 159 216 240 135 103 132 116 91 98 91 131 103 113 102 66 28 308 306 311 311 308 310 315 314 311 313 308 306 311 315 316 313 306 297 285 284 303 303
225 206 168 133 152 151 153 156 183 156 138 185 103 111 151 151 162 196 216 113 133 131 128 101 91 88 108 103 37 341 328 325 324 323 325 323 318 316 321 326 328 315 310 314 320 324 326 330 337 302 313 310 308 305
227 195 236 154 188 198 164 138 188 163 124 154 137 133 152 168 137 230 86 137 124 118 86 110 133 113 23 329 318 316 318 319 324 331 341 342 330 325 324 332 331 323 324 327 328 327 325 326 325 319 310 310 306 299
181 185 233 204 171 135 94 84 106 111 148 175 157 167 122 161 217 102 136 139 151 137 112 209 308 333 322 316 319 326 322 340 345 349 357 355 291 318 328 331 329 325 329 326 323 322 320 320 321 312 309 308 305 284
95 165 158 172 174 142 138 121 149 174 206 160 146 170 168 179 111 139 164 197 180 150 235 278 308 321 328 343 330 325 323 330 333 340 342 218 306 318 318 320 320 324 324 325 324 319 315 312 315 313 314 307 294 290
145 112 115 64 116 152 118 144 155 91 75 165 165 104 107 115 140 163 188 191 176 190 230 276 330 323 318 305 320 321 324 327 333 339 337 332 329 329 331 330 330 329 326 323 320 320 320 315 311 304 299 286 282 289
95 119 124 149 162 122 67 49 105 129 87 106 109 114 108 127 165 185 202 222 230 231 237 244 274 316 347 340 334 338 328 327 331 333 332 328 325 325 328 328 327 326 327 328 325 324 321 318 329 342 291 285 297 292
128 117 104 62 82 75 339 120 108 104 106 92 86 136 146 159 170 199 217 210 250 219 212 205 315 338 337 334 333 333 332 325 323 330 323 318 321 322 328 331 330 328 328 328 329 330 329 332 330 315 306 308 310 311
72 66 61 104 107 64 68 83 101 147 178 191 189 148 137 128 117 167 171 175 217 216 27 352 344 340 332 327 332 315 309 317 321 320 321 322 324 330 333 333 333 333 335 336 337 331 330 327 321 311 311 312 313 317
92 77 78 78 136 136 14 38 221 179 192 153 101 116 132 132 119 199 180 198 209 8 356 349 344 334 326 328 319 327 325 323 323 325 324 328 330 332 333 334 338 339 342 342 335 331 327 324 329 329 323 323 327 333